When you browse on this site, cookies collect data to enhance your experience and personalize the content and advertising you see.
Visit our Privacy Policy to learn more. By continuing to use the site, you agree to this use of cookies and data.
  • In Austria
  • List of Countries
  • For 7 days
  • Water Temperature
  • Weather Map
  • News
  • Weather Widgets
  • user-avatar
    Login

    Hourly Weather Ansfelden

    Today, 23 February, Sunday

    Time Temperature Precipitation Wind Pressure Humidity
    00:00 +7°C° 0 mm 3 mps 742 mmHg 68%
    01:00 +7°C° 0 mm 3 mps 742 mmHg 72%
    02:00 +7°C° 0.6 mm 4 mps 742 mmHg 77%
    03:00 +7°C° 0.6 mm 5 mps 742 mmHg 81%
    04:00 +7°C° 0.6 mm 6 mps 741 mmHg 86%
    05:00 +7°C° 1 mm 6 mps 741 mmHg 85%
    06:00 +7°C° 1 mm 6 mps 741 mmHg 85%
    07:00 +6°C° 0 mm 5 mps 742 mmHg 84%
    08:00 +6°C° 0.7 mm 5 mps 741 mmHg 85%
    09:00 +7°C° 0.7 mm 4 mps 740 mmHg 87%
    10:00 +7°C° 0.7 mm 4 mps 740 mmHg 88%
    11:00 +8°C° 0.4 mm 3 mps 739 mmHg 87%
    12:00 +8°C° 0.4 mm 3 mps 738 mmHg 87%
    13:00 +9°C° 0 mm 2 mps 737 mmHg 88%
    14:00 +10°C° 0.1 mm 3 mps 736 mmHg 85%
    15:00 +10°C° 0.1 mm 4 mps 735 mmHg 81%
    16:00 +10°C° 0.1 mm 5 mps 735 mmHg 78%
    17:00 +11°C° 0 mm 6 mps 735 mmHg 76%
    18:00 +11°C° 0 mm 8 mps 735 mmHg 74%
    19:00 +12°C° 0 mm 9 mps 735 mmHg 73%
    20:00 +12°C° 0.1 mm 10 mps 734 mmHg 71%
    21:00 +12°C° 0.1 mm 10 mps 734 mmHg 70%
    22:00 +12°C° 0.1 mm 11 mps 734 mmHg 68%
    23:00 +11°C° 0.6 mm 11 mps 735 mmHg 73%

    Tomorrow, 24 February, Monday

    Time Temperature Precipitation Wind Pressure Humidity
    00:00 +11°C° 0.6 mm 11 mps 736 mmHg 77%
    01:00 +11°C° 0.6 mm 11 mps 736 mmHg 81%
    02:00 +8°C° 1 mm 10 mps 737 mmHg 79%
    03:00 +6°C° 1 mm 9 mps 738 mmHg 78%
    04:00 +4°C° 1 mm 7 mps 739 mmHg 76%
    05:00 +4°C° 0.3 mm 6 mps 740 mmHg 76%
    06:00 +3°C° 0.3 mm 5 mps 741 mmHg 76%
    07:00 +3°C° 0.3 mm 4 mps 741 mmHg 75%
    08:00 +3°C° 0.2 mm 4 mps 742 mmHg 76%
    09:00 +3°C° 0.2 mm 5 mps 742 mmHg 77%
    10:00 +3°C° 0.2 mm 5 mps 742 mmHg 77%
    11:00 +4°C° 0.1 mm 4 mps 741 mmHg 77%
    12:00 +4°C° 0.1 mm 4 mps 741 mmHg 77%
    13:00 +5°C° 0.1 mm 3 mps 741 mmHg 77%
    14:00 +5°C° 0.1 mm 2 mps 740 mmHg 80%
    15:00 +5°C° 0.1 mm 2 mps 739 mmHg 83%
    16:00 +6°C° 0.1 mm 1 mps 738 mmHg 85%
    17:00 +6°C° 0 mm 1 mps 737 mmHg 87%
    18:00 +5°C° 0 mm 1 mps 737 mmHg 89%
    19:00 +5°C° 0 mm 1 mps 736 mmHg 91%
    20:00 +5°C° 0 mm 1 mps 735 mmHg 90%
    21:00 +5°C° 0 mm 1 mps 735 mmHg 90%
    22:00 +5°C° 0 mm 1 mps 734 mmHg 90%
    23:00 +5°C° 0 mm 1 mps 734 mmHg 90%

    Day after tomorrow, 25 February, Tuesday

    Time Temperature Precipitation Wind Pressure Humidity
    00:00 +5°C° 0 mm 1 mps 733 mmHg 90%
    01:00 +5°C° 0 mm 1 mps 733 mmHg 91%
    02:00 +5°C° 0 mm 1 mps 732 mmHg 90%
    03:00 +5°C° 0 mm 1 mps 732 mmHg 89%
    04:00 +5°C° 0 mm 1 mps 731 mmHg 89%
    05:00 +5°C° 0 mm 1 mps 731 mmHg 88%
    06:00 +5°C° 0 mm 1 mps 731 mmHg 87%
    07:00 +5°C° 0 mm 1 mps 730 mmHg 85%
    08:00 +7°C° 0 mm 1 mps 730 mmHg 81%
    09:00 +8°C° 0 mm 2 mps 730 mmHg 76%
    10:00 +9°C° 0 mm 2 mps 729 mmHg 71%
    11:00 +10°C° 0 mm 3 mps 729 mmHg 65%
    12:00 +12°C° 0 mm 4 mps 728 mmHg 59%
    13:00 +13°C° 0 mm 5 mps 727 mmHg 53%
    14:00 +12°C° 0 mm 5 mps 727 mmHg 56%
    15:00 +12°C° 0 mm 4 mps 726 mmHg 59%
    16:00 +11°C° 0 mm 4 mps 726 mmHg 62%
    17:00 +10°C° 0.3 mm 4 mps 726 mmHg 70%
    18:00 +8°C° 0.3 mm 4 mps 726 mmHg 78%
    19:00 +7°C° 0.3 mm 5 mps 726 mmHg 85%
    20:00 +7°C° 0.4 mm 4 mps 726 mmHg 86%
    21:00 +6°C° 0.4 mm 4 mps 726 mmHg 86%
    22:00 +7°C° 0.4 mm 3 mps 726 mmHg 86%
    23:00 +5°C° 0.5 mm 3 mps 725 mmHg 86%

    26 February, Wednesday

    Time Temperature Precipitation Wind Pressure Humidity
    00:00 +4°C° 0.5 mm 4 mps 725 mmHg 85%
    01:00 +4°C° 0.5 mm 4 mps 725 mmHg 84%
    02:00 +3°C° 0.1 mm 4 mps 725 mmHg 85%
    03:00 +3°C° 0.1 mm 4 mps 724 mmHg 85%
    04:00 +3°C° 0.1 mm 4 mps 724 mmHg 86%
    05:00 +3°C° 0 mm 4 mps 724 mmHg 85%
    06:00 +3°C° 0 mm 3 mps 723 mmHg 85%
    07:00 +3°C° 0 mm 3 mps 723 mmHg 84%
    08:00 +3°C° 0 mm 4 mps 723 mmHg 80%
    09:00 +3°C° 0 mm 6 mps 723 mmHg 76%
    10:00 +3°C° 0 mm 7 mps 723 mmHg 72%
    11:00 +3°C° 0.3 mm 7 mps 723 mmHg 73%
    12:00 +3°C° 0.3 mm 6 mps 723 mmHg 73%
    13:00 +2°C° 0.3 mm 6 mps 723 mmHg 73%
    14:00 +2°C° 0.6 mm 6 mps 724 mmHg 73%
    15:00 +2°C° 0.6 mm 6 mps 724 mmHg 72%
    16:00 +1°C° 0.6 mm 5 mps 725 mmHg 72%
    17:00 +1°C° 0 mm 5 mps 725 mmHg 73%
    18:00 0°C° 0 mm 4 mps 726 mmHg 74%
    19:00 0°C° 0 mm 3 mps 726 mmHg 75%
    20:00 -1°C° 0.1 mm 4 mps 726 mmHg 79%
    21:00 -1°C° 0.1 mm 5 mps 726 mmHg 84%
    22:00 -3°C° 0.1 mm 6 mps 727 mmHg 89%
    23:00 -2°C° 0.2 mm 6 mps 727 mmHg 87%

    27 February, Thursday

    Time Temperature Precipitation Wind Pressure Humidity
    00:00 -2°C° 0.2 mm 7 mps 727 mmHg 85%
    01:00 -2°C° 0.2 mm 7 mps 728 mmHg 83%
    02:00 -2°C° 0.1 mm 7 mps 728 mmHg 83%
    03:00 -2°C° 0.1 mm 7 mps 729 mmHg 84%
    04:00 -2°C° 0.1 mm 6 mps 729 mmHg 84%
    05:00 -2°C° 0.1 mm 6 mps 730 mmHg 84%
    06:00 -2°C° 0.1 mm 6 mps 730 mmHg 84%
    07:00 -3°C° 0.1 mm 6 mps 731 mmHg 85%
    08:00 -2°C° 0.2 mm 6 mps 732 mmHg 84%
    09:00 -2°C° 0.2 mm 7 mps 732 mmHg 83%
    10:00 -1°C° 0.2 mm 7 mps 733 mmHg 82%
    11:00 0°C° 0.2 mm 7 mps 733 mmHg 76%
    12:00 0°C° 0.2 mm 7 mps 732 mmHg 70%
    13:00 +2°C° 0.2 mm 7 mps 732 mmHg 64%
    14:00 +2°C° 0.1 mm 6 mps 732 mmHg 63%
    15:00 +2°C° 0.1 mm 5 mps 731 mmHg 62%
    16:00 +3°C° 0.1 mm 4 mps 731 mmHg 61%
    17:00 +2°C° 0 mm 3 mps 730 mmHg 66%
    18:00 +2°C° 0 mm 2 mps 730 mmHg 71%
    19:00 +3°C° 0 mm 1 mps 729 mmHg 76%
    20:00 +3°C° 0 mm 1 mps 729 mmHg 77%
    21:00 +2°C° 0 mm 2 mps 729 mmHg 79%
    22:00 +2°C° 0 mm 2 mps 728 mmHg 80%
    23:00 +1°C° 0.6 mm 2 mps 728 mmHg 85%

    28 February, Friday

    Time Temperature Precipitation Wind Pressure Humidity
    00:00 +2°C° 0.6 mm 1 mps 727 mmHg 90%
    01:00 +2°C° 0.6 mm 1 mps 726 mmHg 96%
    02:00 +1°C° 0.9 mm 2 mps 726 mmHg 95%
    03:00 +1°C° 0.9 mm 2 mps 725 mmHg 95%
    04:00 +1°C° 0.9 mm 3 mps 725 mmHg 94%
    05:00 +1°C° 0.3 mm 4 mps 725 mmHg 93%
    06:00 +3°C° 0.3 mm 4 mps 726 mmHg 92%
    07:00 +3°C° 0.3 mm 5 mps 726 mmHg 90%
    08:00 +3°C° 0.1 mm 5 mps 726 mmHg 90%
    09:00 +3°C° 0.1 mm 5 mps 727 mmHg 89%
    10:00 +5°C° 0.1 mm 5 mps 727 mmHg 89%
    11:00 +5°C° 0.6 mm 5 mps 727 mmHg 91%
    12:00 +4°C° 0.6 mm 4 mps 727 mmHg 93%
    13:00 +4°C° 0.6 mm 3 mps 728 mmHg 95%
    14:00 +4°C° 1 mm 3 mps 728 mmHg 96%
    15:00 +5°C° 1 mm 2 mps 728 mmHg 97%
    16:00 +5°C° 1 mm 1 mps 728 mmHg 98%
    17:00 +6°C° 1.5 mm 1 mps 728 mmHg 97%
    18:00 +6°C° 1.5 mm 1 mps 728 mmHg 97%
    19:00 +6°C° 1.5 mm 1 mps 728 mmHg 97%
    20:00 +5°C° 1.1 mm 2 mps 728 mmHg 97%
    21:00 +5°C° 1.1 mm 2 mps 728 mmHg 96%
    22:00 +6°C° 1.1 mm 2 mps 728 mmHg 96%
    23:00 +6°C° 0.6 mm 2 mps 727 mmHg 95%
    Show more